{"data":{"norad_id":54013,"intl_designator":"2022-125BB","name":"STARLINK-5098","alt_names":[],"object_type":"PAYLOAD","status":"ACTIVE","operator":null,"country":"US","launch_date":"2022-10-05","launch_site_code":"AFWTR","launch_vehicle":null,"mission":null,"orbit_class":"UNKNOWN","rcs_meters":null,"size_class":null,"mass_kg":null,"dimensions":null,"purposes":["comms"],"wikipedia_slug":null,"has_3d_model":false,"image_url":null,"decayed_at":null,"tle_current":{"epoch":"2026-05-25T04:44:31.616160Z","epoch_age_seconds":55293,"freshness":"FRESH","line1":"1 54013U 22125BB  26145.19758815 -.00000688  00000+0 -25139-4 0  9994","line2":"2 54013  53.2137 220.6195 0000985  86.6363 273.4742 15.08841463201153","mean_motion":15.08841463,"eccentricity":9.85e-5,"inclination_deg":53.2137,"raan_deg":220.6195,"arg_perigee_deg":86.6363,"mean_anomaly_deg":273.4742,"bstar":-2.5139e-5,"rev_number":20115,"period_min":95.437462139785,"perigee_km":539.05750638416,"apogee_km":540.42032793984,"semimajor_km":6917.875917162,"source":"CELESTRAK","updated_at":"2026-05-25T13:38:17.626841Z"}}}